TimeBST,TemperatureF,Dew PointF,Humidity,Sea Level PressureIn,VisibilityMPH,Wind Direction,Wind SpeedMPH,Gust SpeedMPH,PrecipitationIn,Events,Conditions,WindDirDegrees,DateUTC
12:50 AM,56,54,92,30.27,6,ENE,5.8,,,,Mist,60,2013-07-12 23:50:00
12:50 AM,55.4,53.6,94,30.27,5.6,ENE,5.8,-,N/A,,Clear,60,2013-07-12 23:50:00
1:50 AM,56,54,93,30.28,6,East,4.6,,,,Haze,90,2013-07-13 00:50:00
1:50 AM,55.4,55.4,100,30.27,5.6,East,4.6,-,N/A,,Haze,90,2013-07-13 00:50:00
2:50 AM,56,55,95,30.27,6,ENE,2.3,,,,Mist,60,2013-07-13 01:50:00
2:50 AM,55.4,55.4,100,30.27,5.6,ENE,2.3,-,N/A,,Clear,60,2013-07-13 01:50:00
3:50 AM,55,54,98,30.28,4,SW,1.2,,,,Mist,230,2013-07-13 02:50:00
3:50 AM,55.4,55.4,100,30.27,4.3,SW,1.2,-,N/A,,Clear,230,2013-07-13 02:50:00
4:50 AM,55,54,98,30.29,2,Calm,Calm,,,Fog,Light Fog,,2013-07-13 03:50:00
4:50 AM,55.4,55.4,100,30.27,2.5,Calm,Calm,-,N/A,Fog,Fog,0,2013-07-13 03:50:00
5:50 AM,53,52,95,30.28,0,WNW,1.2,,,Fog,Patches of Fog,300,2013-07-13 04:50:00
5:50 AM,53.6,51.8,94,30.27,0.5,WNW,1.2,-,N/A,Fog,Patches of Fog,300,2013-07-13 04:50:00
6:50 AM,57,56,97,30.29,1,WNW,2.3,,,Fog,Light Fog,300,2013-07-13 05:50:00
6:50 AM,57.2,57.2,100,30.27,1.2,WNW,2.3,-,N/A,Fog,Fog,300,2013-07-13 05:50:00
7:50 AM,61,59,91,30.29,3,NNE,1.2,,,,Haze,20,2013-07-13 06:50:00
7:50 AM,60.8,59.0,94,30.27,3.1,NNE,1.2,-,N/A,,Haze,20,2013-07-13 06:50:00
8:50 AM,66,61,78,30.30,9,NW,4.5,,,,Haze,320,2013-07-13 07:50:00
8:50 AM,66.2,60.8,83,30.30,6.2,NW,2.3,-,N/A,,Haze,320,2013-07-13 07:50:00
9:50 AM,71,63,70,30.29,9,West,2.2,,,,Haze,280,2013-07-13 08:50:00
9:50 AM,71.6,62.6,73,30.27,6.2,West,1.2,-,N/A,,Haze,280,2013-07-13 08:50:00
10:50 AM,72,65,72,30.29,9,WSW,4.6,,,,Haze,250,2013-07-13 09:50:00
10:50 AM,71.6,64.4,78,30.27,6.2,WSW,4.6,-,N/A,,Haze,250,2013-07-13 09:50:00
11:50 AM,70,63,72,30.29,9,WSW,6.9,,,,Haze,240,2013-07-13 10:50:00
11:50 AM,69.8,62.6,78,30.27,6.2,WSW,6.9,-,N/A,,Haze,240,2013-07-13 10:50:00
12:50 PM,69,63,76,30.30,9,SW,8.1,,,,Haze,230,2013-07-13 11:50:00
12:50 PM,68.0,62.6,83,30.30,6.2,SW,8.1,-,N/A,,Haze,230,2013-07-13 11:50:00
1:50 PM,71.6,64.4,78,30.27,6.2,SW,6.9,-,N/A,,Haze,230,2013-07-13 12:50:00
2:50 PM,73,64,67,30.29,11,WSW,11.2,,,,Haze,250,2013-07-13 13:50:00
2:50 PM,73.4,64.4,73,30.27,6.2,WSW,5.8,-,N/A,,Haze,250,2013-07-13 13:50:00
3:50 PM,80,58,37,30.28,11,NNE,24.6,,,,Haze,20,2013-07-13 14:50:00
3:50 PM,80.6,59.0,48,30.27,6.2,NNE,12.7,-,N/A,,Haze,20,2013-07-13 14:50:00
4:50 PM,79,59,40,30.29,11,NNE,13.8,,,,Haze,20,2013-07-13 15:50:00
4:50 PM,78.8,59.0,51,30.27,6.2,NNE,13.8,-,N/A,,Haze,20,2013-07-13 15:50:00
5:50 PM,77,58,43,30.28,11,NNE,11.5,,,,Haze,20,2013-07-13 16:50:00
5:50 PM,77.0,59.0,54,30.27,-9999.0,NNE,11.5,-,N/A,,Clear,20,2013-07-13 16:50:00
6:50 PM,74,59,49,30.28,11,North,10.4,,,,Haze,0,2013-07-13 17:50:00
6:50 PM,73.4,59.0,61,30.27,-9999.0,North,10.4,-,N/A,,Clear,360,2013-07-13 17:50:00
7:50 PM,71,57,52,30.28,11,North,8.1,,,,Haze,350,2013-07-13 18:50:00
7:50 PM,71.6,57.2,60,30.27,-9999.0,North,8.1,-,N/A,,Clear,350,2013-07-13 18:50:00
8:50 PM,69,56,53,30.28,11,North,9.2,,,,Haze,0,2013-07-13 19:50:00
8:50 PM,69.8,55.4,60,30.27,-9999.0,North,9.2,-,N/A,,Clear,360,2013-07-13 19:50:00
9:50 PM,68,57,59,30.30,6,North,11.5,,,,Haze,10,2013-07-13 20:50:00
9:50 PM,68.0,57.2,68,30.30,5.6,North,11.5,-,N/A,,Haze,10,2013-07-13 20:50:00
10:50 PM,66,58,67,30.30,6,NE,8.1,,,,Haze,40,2013-07-13 21:50:00
10:50 PM,66.2,57.2,73,30.30,5.6,NE,8.1,-,N/A,,Haze,40,2013-07-13 21:50:00
11:50 PM,65,55,61,30.30,7,NNE,8.1,,,,Haze,30,2013-07-13 22:50:00
11:50 PM,64.4,55.4,73,30.30,-9999.0,NNE,8.1,-,N/A,,Clear,30,2013-07-13 22:50:00